TimeCST,TemperatureF,Dew PointF,Humidity,Sea Level PressureIn,VisibilityMPH,Wind Direction,Wind SpeedMPH,Gust SpeedMPH,PrecipitationIn,Events,Conditions,WindDirDegrees,DateUTC
12:55 AM,25.0,22.6,91,30.50,10.0,SSW,3.5,-,N/A,,Clear,200,2013-01-18 06:55:00
1:55 AM,24.8,21.6,87,30.51,10.0,SE,4.6,-,N/A,,Clear,140,2013-01-18 07:55:00
2:55 AM,25.3,21.4,85,30.51,10.0,SSE,4.6,-,N/A,,Clear,160,2013-01-18 08:55:00
3:55 AM,23.9,20.7,87,30.49,10.0,SE,4.6,-,N/A,,Clear,140,2013-01-18 09:55:00
4:55 AM,23.9,20.7,87,30.48,10.0,SSE,3.5,-,N/A,,Clear,150,2013-01-18 10:55:00
5:55 AM,23.2,20.1,88,30.48,10.0,SE,5.8,-,N/A,,Clear,140,2013-01-18 11:55:00
6:55 AM,25.3,20.7,82,30.47,10.0,South,8.1,-,N/A,,Clear,180,2013-01-18 12:55:00
7:55 AM,28.0,21.7,77,30.47,10.0,South,4.6,-,N/A,,Clear,180,2013-01-18 13:55:00
8:55 AM,35.1,23.5,63,30.46,10.0,SSW,8.1,-,N/A,,Clear,200,2013-01-18 14:55:00
9:55 AM,39.9,24.6,54,30.46,10.0,South,10.4,-,N/A,,Clear,180,2013-01-18 15:55:00
10:55 AM,45.3,24.8,45,30.42,10.0,South,12.7,18.4,N/A,,Clear,190,2013-01-18 16:55:00
11:55 AM,50.5,24.4,36,30.37,10.0,SSW,8.1,-,N/A,,Clear,200,2013-01-18 17:55:00
12:55 PM,52.5,23.2,32,30.31,10.0,SSW,8.1,19.6,N/A,,Clear,200,2013-01-18 18:55:00
1:55 PM,54.7,22.8,29,30.28,10.0,SW,12.7,19.6,N/A,,Clear,220,2013-01-18 19:55:00
2:55 PM,55.0,23.5,30,30.26,10.0,SSW,11.5,20.7,N/A,,Clear,200,2013-01-18 20:55:00
3:55 PM,54.3,23.0,30,30.25,10.0,SSW,11.5,24.2,N/A,,Clear,200,2013-01-18 21:55:00
4:55 PM,52.0,24.6,35,30.24,10.0,South,12.7,19.6,N/A,,Clear,190,2013-01-18 22:55:00
5:55 PM,47.1,26.2,44,30.23,10.0,South,8.1,-,N/A,,Clear,170,2013-01-18 23:55:00
6:55 PM,45.3,27.0,49,30.22,10.0,South,9.2,19.6,N/A,,Clear,180,2013-01-19 00:55:00
7:55 PM,45.7,26.2,47,30.21,10.0,South,10.4,17.3,N/A,,Clear,180,2013-01-19 01:55:00
8:55 PM,45.3,24.8,45,30.19,10.0,South,9.2,-,N/A,,Clear,190,2013-01-19 02:55:00
9:55 PM,44.6,25.2,46,30.18,10.0,SSW,11.5,18.4,N/A,,Clear,200,2013-01-19 03:55:00
10:55 PM,43.9,26.1,50,30.17,10.0,SSW,11.5,18.4,N/A,,Clear,200,2013-01-19 04:55:00
11:55 PM,42.6,26.8,54,30.16,10.0,SSW,9.2,-,N/A,,Clear,200,2013-01-19 05:55:00